Location: *
(48.8489°N, 2.3218°E)
Time: 01:52:15
(UTC+00:00)

Okean 2 Rocket - Pass Details

Date: 23 August 2019
Orbit: 617 x 641 km, 82.5° (Epoch: 16 October)

Event Time Altitude Azimuth Distance (km) Brightness Sun altitude
Exits shadow 21:39:59 77° 173° (S) 642 2.9 -23.1°
Maximum altitude 21:40:18 86° 97° (E) 629 2.9 -23.1°
Drops below altitude 10° 21:44:45 10° 10° (N) 2,004 6.2 -23.5°
Sets 21:46:59 0° 11° (N) 2,919 7.2 -23.7°
